FW1830 Weather Reports


Display with metric or nautical units.
time (UTC)temp
F
wind
direction
speed
MPH
gust
MPH
rain 1hr
in
rain 24hr
in
rain mn
in
humidity
%
barometer
mb
20260510230043 82 360 0.0 4.0 0.00 0.00 0.00 77 1015.6
20260510224539 82 360 1.0 6.0 0.00 0.00 0.00 77 1015.7
20260510223038 82 360 0.0 4.0 0.00 0.00 0.00 78 1015.6
20260510221538 82 360 1.0 8.0 0.00 0.00 0.00 76 1015.6
20260510220046 82 360 1.0 4.0 0.00 0.00 0.00 76 1015.6
20260510214537 82 360 1.0 4.0 0.00 0.00 0.00 74 1015.6
20260510213039 83 269 1.0 4.0 0.00 0.00 0.00 74 1015.7
20260510211536 83 360 1.0 6.0 0.00 0.00 0.00 73 1015.8
20260510210035 84 260 1.0 4.0 0.00 0.00 0.00 71 1015.8
20260510204535 85 360 1.0 5.0 0.00 0.00 0.00 69 1015.9
20260510203039 85 360 3.0 8.0 0.00 0.00 0.00 67 1016.1
20260510201634 85 223 3.0 7.0 0.00 0.00 0.00 66 1015.9
20260510200035 84 217 3.0 8.0 0.00 0.00 0.00 67 1015.8
20260510194533 84 233 3.0 7.0 0.00 0.00 0.00 67 1015.8
20260510193033 85 252 2.0 8.0 0.00 0.00 0.00 67 1015.9
20260510191535 85 244 4.0 8.0 0.00 0.00 0.00 65 1016.1
20260510190033 86 360 2.0 8.0 0.00 0.00 0.00 65 1016.2
20260510184532 87 360 2.0 6.0 0.00 0.00 0.00 62 1016.2
20260510183036 87 245 3.0 5.0 0.00 0.00 0.00 60 1016.2
20260510181527 87 217 3.0 8.0 0.00 0.00 0.00 57 1016.3
20260510180044 88 229 2.0 7.0 0.00 0.00 0.00 56 1016.5
20260510174525 88 198 3.0 8.0 0.00 0.00 0.00 58 1016.5
20260510173023 88 360 2.0 6.0 0.00 0.00 0.00 58 1016.5
20260510171523 88 159 1.0 8.0 0.00 0.00 0.00 59 1016.7
20260510170021 88 360 3.0 6.0 0.00 0.00 0.00 58 1016.7
20260510164542 89 360 2.0 6.0 0.00 0.00 0.00 58 1016.9
20260510163020 89 221 3.0 6.0 0.00 0.00 0.00 59 1017.0
20260510161515 88 360 2.0 5.0 0.00 0.00 0.00 62 1016.8
20260510160014 87 244 2.0 5.0 0.00 0.00 0.00 64 1016.9
20260510154514 87 207 2.0 8.0 0.00 0.00 0.00 64 1017.0
20260510153013 85 360 3.0 9.0 0.00 0.00 0.00 65 1016.9
20260510151506 86 360 2.0 6.0 0.00 0.00 0.00 65 1016.8
20260510150005 85 190 4.0 6.0 0.00 0.00 0.00 67 1017.0
20260510144502 84 360 3.0 6.0 0.00 0.00 0.00 68 1016.8
20260510143059 84 179 1.0 6.0 0.00 0.00 0.00 71 1016.9
20260510141556 83 196 2.0 4.0 0.00 0.00 0.00 73 1016.8
20260510140052 82 203 1.0 3.0 0.00 0.00 0.00 76 1016.7
20260510134549 82 196 1.0 6.0 0.00 0.00 0.00 77 1016.4
20260510133046 81 360 1.0 3.0 0.00 0.00 0.00 78 1016.2
20260510131544 81 190 0.0 3.0 0.00 0.00 0.00 78 1016.3
20260510130038 80 360 0.0 3.0 0.00 0.00 0.00 79 1016.3
20260510124556 79 101 1.0 5.0 0.00 0.00 0.00 79 1016.3
20260510123032 77 150 0.0 0.0 0.00 0.00 0.00 83 1016.1
20260510121530 76 140 0.0 0.0 0.00 0.00 0.00 86 1016.1
20260510120032 76 113 0.0 0.0 0.00 0.00 0.00 86 1016.0
20260510114526 76 360 0.0 2.0 0.00 0.00 0.00 87 1015.6
20260510113029 76 130 0.0 0.0 0.00 0.00 0.00 87 1015.4
20260510111531 76 130 0.0 0.0 0.00 0.00 0.00 87 1015.1
20260510110018 76 126 0.0 0.0 0.00 0.00 0.00 87 1014.8
20260510104523 76 119 0.0 0.0 0.00 0.00 0.00 87 1014.6
20260510103018 76 119 0.0 0.0 0.00 0.00 0.00 87 1014.4
20260510101519 76 120 0.0 0.0 0.00 0.00 0.00 87 1014.1
20260510100015 76 167 0.0 0.0 0.00 0.00 0.00 87 1013.7
20260510094515 76 141 0.0 0.0 0.00 0.00 0.00 87 1013.6
20260510093015 76 360 0.0 0.0 0.00 0.00 0.00 87 1013.7
20260510091525 77 140 0.0 0.0 0.00 0.00 0.00 87 1013.5
20260510090013 77 140 0.0 0.0 0.00 0.00 0.00 87 1013.3
20260510084510 77 136 0.0 0.0 0.00 0.00 0.00 87 1013.2
20260510083007 78 360 0.0 2.0 0.00 0.00 0.00 87 1013.1
20260510081520 78 157 0.0 0.0 0.00 0.00 0.00 86 1013.2
20260510080009 78 170 0.0 0.0 0.00 0.00 0.00 86 1013.4
20260510074508 78 170 0.0 0.0 0.00 0.00 0.00 86 1013.4
20260510073003 78 186 0.0 0.0 0.00 0.00 0.00 85 1013.4
20260510071501 78 157 0.0 0.0 0.00 0.00 0.00 85 1013.5
20260510070108 78 167 0.0 0.0 0.00 0.00 0.00 85 1013.7
20260510064610 78 167 0.0 0.0 0.00 0.00 0.00 85 1013.7
20260510063055 78 360 0.0 0.0 0.00 0.00 0.00 85 1014.0
20260510061554 79 360 0.0 0.0 0.00 0.00 0.00 85 1014.1
20260510060053 79 190 0.0 0.0 0.00 0.00 0.00 84 1014.4
20260510054550 79 118 0.0 0.0 0.00 0.00 0.00 84 1014.7
20260510053048 79 142 0.0 0.0 0.00 0.00 0.00 84 1014.9
20260510051547 79 149 0.0 0.0 0.00 0.00 0.00 83 1014.9
20260510050050 79 156 0.0 0.0 0.00 0.00 0.00 83 1014.8
20260510044553 79 360 0.0 0.0 0.00 0.00 0.00 83 1015.0
20260510043044 79 227 0.0 0.0 0.00 0.00 0.00 83 1015.2
20260510041545 79 227 0.0 0.0 0.00 0.00 0.00 83 1015.1
20260510040041 79 213 0.0 0.0 0.00 0.00 0.00 83 1015.0
20260510034544 79 213 0.0 0.0 0.00 0.00 0.00 83 1014.9
20260510033039 79 213 0.0 0.0 0.00 0.00 0.00 83 1014.9
20260510031547 79 242 0.0 0.0 0.00 0.00 0.00 82 1014.9
20260510030043 79 360 0.0 0.0 0.00 0.00 0.00 82 1014.9
20260510024547 79 215 0.0 0.0 0.00 0.00 0.00 83 1014.8
20260510023037 79 259 0.0 0.0 0.00 0.00 0.00 82 1014.7
20260510021538 79 360 0.0 0.0 0.00 0.00 0.00 82 1014.6
20260510020037 79 360 0.0 0.0 0.00 0.00 0.00 82 1014.7
20260510014539 80 302 0.0 0.0 0.00 0.00 0.00 81 1014.4
20260510013040 80 284 0.0 2.0 0.00 0.00 0.00 81 1014.4
20260510011535 80 360 0.0 1.0 0.00 0.00 0.00 80 1014.1
20260510010035 80 360 2.0 5.0 0.00 0.00 0.00 79 1014.0
20260510004534 80 223 2.0 4.0 0.00 0.00 0.00 78 1013.6
20260510003044 80 360 2.0 3.0 0.00 0.00 0.00 76 1013.5
20260510001533 80 207 1.0 4.0 0.00 0.00 0.00 75 1013.3
20260510000033 80 360 1.0 6.0 0.00 0.00 0.00 74 1013.1
20260509234551 81 360 2.0 5.0 0.00 0.00 0.00 73 1012.9
20260509233041 81 360 2.0 4.0 0.00 0.00 0.00 72 1013.0
20260509231535 82 360 1.0 6.0 0.00 0.00 0.00 72 1013.0